Location: Norton
(51.3000°N, 0.8167°E)
Time: 17:53:53
(UTC+00:00)

Cosmos 2221 Rocket - Pass Details

Date: 03 March 2021
Orbit: 621 x 647 km, 82.5° (Epoch: 13 April)

Event Time Altitude Azimuth Distance (km) Brightness Sun altitude
Rises 20:16:54 0° 348° (NNW) 2,915 7.5 -24.7°
Reaches altitude 10° 20:19:08 10° 348° (NNW) 2,004 6.6 -25.0°
Enters shadow 20:23:13 73° 318° (NW) 658 3.7 -25.6°
